Simultaneous Nadir Overpasses (SNOs) Predictions

Prediction of SNOs between GOES-16 and TERRA Satellite Orbit:

Table of predicted SNOs for the next 14.0 days since TLE Epoch: 2/17/2024
Index Date Time (GOES-16) GOES-16 Lat,Lon TERRA Lat,Lon Distance(km) Time Diff (sec)
1 02/18/2024 02:45:37 -0.04, -75.20 0.35, -73.30 216.22 80
2 02/18/2024 15:08:18 0.04, -75.22 0.67, -78.16 334.45 80
3 02/20/2024 14:48:38 0.04, -75.23 -0.20, -74.06 132.97 80
4 02/21/2024 03:11:28 -0.04, -75.22 -0.83, -78.97 425.49 80
5 02/23/2024 02:51:47 -0.04, -75.24 0.02, -74.86 43.30 80
6 02/25/2024 14:54:47 0.04, -75.30 0.13, -75.62 37.16 80
7 02/27/2024 14:40:26 0.04, -75.34 -0.76, -71.52 433.75 80
8 02/28/2024 03:00:35 -0.04, -75.33 -0.28, -76.42 123.69 80
9 03/01/2024 02:40:53 -0.04, -75.37 0.59, -72.31 347.74 80
10 03/01/2024 15:00:54 0.04, -75.40 0.42, -77.18 202.35 80
